Date_and_time,latitude,longitude,wind_speed,RelWindDirFrom,WindDirFrom,air_pressure,air_temperature,relative_humidity,Temp,platform_speed_wrt_ground,air_pressure_at_mean_sea_level,platform_orientation
2018-10-22 23:50,50.6304333333333,-96.9807533333333,9.2,14.3,335,998.12,2.1,57,4.33,0.0,1025.97,287.3
2018-10-23 00:00,50.630435,-96.9807533333333,11.5,19.3,341,998.20,2.0,57,4.35,0.0,1026.06,320.6
2018-10-23 00:10,50.6304333333333,-96.980755,12.3,19.5,350,998.33,1.9,58,4.35,0.0,1026.20,320.6
2018-10-23 00:20,50.6304333333333,-96.980755,12.1,16.6,352,998.42,1.9,60,4.35,0.0,1026.30,320.6
2018-10-23 00:30,50.6304316666667,-96.9807566666667,11.0,15.7,352,998.47,1.9,61,4.34,0.0,1026.38,320.6
2018-10-23 00:40,50.6304316666667,-96.9807566666667,10.5,15.1,351,998.50,1.8,61,4.37,0.0,1026.41,320.6
2018-10-23 00:50,50.6304316666667,-96.9807583333333,9.7,13.9,348,998.54,1.8,61,4.36,0.0,1026.47,320.6
2018-10-23 01:00,50.63043,-96.98076,8.2,12.1,349,998.68,1.8,61,4.38,0.0,1026.62,306.1
2018-10-23 01:10,50.6304283333333,-96.98076,7.9,11.6,347,998.76,1.8,61,4.38,0.0,1026.71,306.1
2018-10-23 01:20,50.6304283333333,-96.98076,7.3,11.0,339,998.82,1.7,61,4.37,0.0,1026.78,306.1
2018-10-23 01:30,50.63043,-96.98076,5.5,10.5,333,998.95,1.7,61,4.38,0.0,1026.92,306.1
2018-10-23 01:40,50.63043,-96.98076,6.1,9.0,331,998.95,1.6,60,4.37,0.0,1026.93,306.1
2018-10-23 01:50,50.63043,-96.98076,6.2,9.0,326,998.97,1.6,59,4.33,0.0,1026.96,306.1
2018-10-23 02:00,50.6304366666667,-96.9807983333333,5.3,8.1,317,999.07,1.6,59,4.31,0.0,1027.07,260.0
2018-10-23 02:10,50.6304333333333,-96.980765,5.7,10.1,320,999.13,1.5,59,4.31,0.0,1027.13,260.0
2018-10-23 02:20,50.6304316666667,-96.9807666666667,6.5,9.9,327,999.21,1.6,59,4.31,0.0,1027.21,260.0
2018-10-23 02:30,50.6304316666667,-96.980765,7.7,11.7,326,999.28,1.6,58,4.31,0.0,1027.28,260.0
2018-10-23 02:40,50.63043,-96.980765,7.7,12.4,326,999.27,1.7,58,4.32,0.0,1027.28,260.0
2018-10-23 02:50,50.63043,-96.9807633333333,8.1,13.4,331,999.34,1.7,58,4.32,0.0,1027.34,260.0
2018-10-23 03:00,50.63043,-96.980765,8.8,14.5,330,999.37,1.7,59,4.33,0.0,1027.38,216.6
2018-10-23 03:10,50.6304316666667,-96.9807633333333,8.2,15.2,326,999.48,1.7,59,4.31,0.0,1027.49,216.6
2018-10-23 03:20,50.6304333333333,-96.9807616666667,8.1,14.3,333,999.60,1.7,60,4.30,0.0,1027.62,216.6
2018-10-23 03:30,50.6304316666667,-96.9807333333333,7.0,11.7,327,999.75,1.6,60,4.28,0.0,1027.78,216.6
2018-10-23 03:40,50.6304366666667,-96.9807466666667,6.8,10.5,330,999.82,1.6,62,4.27,0.0,1027.86,216.6
2018-10-23 03:50,50.6304283333333,-96.9807433333333,6.9,10.9,337,999.83,1.6,62,4.27,0.0,1027.87,216.6
2018-10-23 04:00,50.6304333333333,-96.980755,7.2,11.2,344,999.82,1.5,63,4.27,0.0,1027.86,360.0
2018-10-23 04:10,50.6304366666667,-96.9807483333333,7.1,11.3,339,999.85,1.4,64,4.28,0.0,1027.90,360.0
2018-10-23 04:20,50.6304433333333,-96.9807466666667,5.8,10.2,331,999.92,1.1,65,4.28,0.0,1027.98,360.0
2018-10-23 04:30,50.63044,-96.9807533333333,4.7,8.0,318,1000.05,0.7,65,4.30,0.0,1028.13,360.0
2018-10-23 04:40,50.630435,-96.9807666666667,5.4,7.3,313,1000.14,0.4,66,4.30,0.0,1028.24,360.0
2018-10-23 04:50,50.6304516666667,-96.9807633333333,4.8,7.0,303,1000.23,0.2,67,4.29,0.0,1028.34,360.0
2018-10-23 05:00,50.63045,-96.98076,5.2,7.5,309,1000.24,0.0,68,4.28,0.0,1028.37,56.6
2018-10-23 05:10,50.6304483333333,-96.9807616666667,5.6,8.3,315,1000.21,0.0,68,4.27,0.0,1028.33,56.6
2018-10-23 05:20,50.6304466666667,-96.9807716666667,5.5,8.1,313,1000.25,0.2,69,4.28,0.0,1028.37,56.6
2018-10-23 05:30,50.6304433333333,-96.9807583333333,6.5,8.9,317,1000.29,0.3,69,4.27,0.0,1028.41,56.6
2018-10-23 05:40,50.63042,-96.9807766666667,6.8,8.9,311,1000.41,0.3,69,4.25,0.0,1028.53,56.6
2018-10-23 05:50,50.6304383333333,-96.9807633333333,5.6,9.9,316,1000.55,0.3,69,4.23,0.0,1028.67,56.6
2018-10-23 06:00,50.6304416666667,-96.98076,5.3,7.9,312,1000.73,0.3,69,4.22,0.0,1028.86,23.5
2018-10-23 06:10,50.63044,-96.9807633333333,5.5,8.1,313,1000.76,0.3,69,4.22,0.0,1028.92,23.5
2018-10-23 06:20,50.6304416666667,-96.9807633333333,4.3,7.0,326,1000.83,0.4,70,4.22,0.0,1029.00,23.5
2018-10-23 06:30,50.6304166666667,-96.9807566666667,4.8,6.7,320,1000.90,0.4,70,4.20,0.0,1029.08,23.5
2018-10-23 06:40,50.630425,-96.980765,3.9,6.5,318,1000.96,0.4,70,4.20,0.0,1029.16,23.5
2018-10-23 06:50,50.630425,-96.9807616666667,3.9,6.4,315,1000.99,0.4,69,4.20,0.0,1029.20,23.5
2018-10-23 07:00,50.6304266666667,-96.9807633333333,3.2,4.5,308,1001.13,0.4,70,4.20,0.0,1029.35,192.6
2018-10-23 07:10,50.630425,-96.980765,3.9,6.3,307,1001.14,0.3,70,4.20,0.0,1029.35,192.6
2018-10-23 07:20,50.630425,-96.98076,4.4,6.5,310,1001.25,0.3,70,4.20,0.0,1029.46,192.6
2018-10-23 07:30,50.6304333333333,-96.980785,5.1,7.7,314,1001.30,0.4,70,4.20,0.0,1029.50,192.6
2018-10-23 07:40,50.6304266666667,-96.9807766666667,3.7,6.0,315,1001.47,0.4,70,4.19,0.0,1029.68,192.6
2018-10-23 07:50,50.6303916666667,-96.9807683333333,3.3,4.8,320,1001.51,0.4,71,4.18,0.0,1029.72,192.6
2018-10-23 08:00,50.6304233333333,-96.9807716666667,3.5,4.9,317,1001.46,0.3,71,4.16,0.0,1029.67,200.1
2018-10-23 08:10,50.6304216666667,-96.9807616666667,3.9,5.8,316,1001.55,0.2,71,4.15,0.0,1029.77,200.1
2018-10-23 08:20,50.63042,-96.9807616666667,3.6,5.3,298,1001.58,0.1,71,4.15,0.0,1029.80,200.1
2018-10-23 08:30,50.63043,-96.9807466666667,4.0,5.4,298,1001.77,-0.0,71,4.15,0.0,1030.01,200.1
2018-10-23 08:40,50.6304266666667,-96.98075,3.7,5.7,286,1001.96,-0.2,72,4.13,0.0,1030.21,200.1
2018-10-23 08:50,50.63043,-96.9807516666667,4.0,5.8,283,1002.02,-0.4,73,4.12,0.0,1030.28,200.1
2018-10-23 09:00,50.6304316666667,-96.980755,4.4,6.6,290,1001.98,-0.5,73,4.11,0.0,1030.25,142.0
2018-10-23 09:10,50.6304333333333,-96.9807583333333,4.2,6.1,294,1001.95,-0.5,73,4.10,0.0,1030.22,142.0
2018-10-23 09:20,50.6304333333333,-96.9807566666667,4.7,7.0,305,1001.98,-0.3,72,4.11,0.0,1030.24,142.0
2018-10-23 09:30,50.6304333333333,-96.9807566666667,3.6,4.8,308,1002.07,-0.4,73,4.11,0.0,1030.34,142.0
2018-10-23 09:40,50.6304283333333,-96.98073,3.9,5.7,291,1002.11,-0.5,74,4.10,0.0,1030.38,142.0
2018-10-23 09:50,50.630435,-96.980775,4.5,6.1,280,1002.15,-0.7,75,4.09,0.0,1030.44,142.0
2018-10-23 10:00,50.6304283333333,-96.980755,4.5,6.7,279,1002.33,-0.9,76,4.09,0.0,1030.64,90.0
2018-10-23 10:10,50.6304316666667,-96.98076,4.1,6.8,296,1002.38,-1.0,76,4.08,0.0,1030.70,90.0
2018-10-23 10:20,50.630435,-96.980765,3.8,5.9,312,1002.43,-0.9,76,4.08,0.0,1030.76,90.0
2018-10-23 10:30,50.630425,-96.98077,4.2,6.5,307,1002.43,-0.8,76,4.08,0.0,1030.76,90.0
2018-10-23 10:40,50.6304,-96.9807516666667,3.8,5.4,307,1002.52,-0.9,76,4.07,0.0,1030.87,90.0
2018-10-23 10:50,50.6304066666667,-96.98076,3.4,5.4,304,1002.60,-0.9,77,4.05,0.0,1030.95,90.0
2018-10-23 11:00,50.63041,-96.9807533333333,3.6,6.3,303,1002.64,-1.0,77,4.04,0.0,1031.00,148.9
2018-10-23 11:10,50.63041,-96.9807516666667,2.5,4.4,318,1002.66,-0.9,77,4.04,0.0,1031.00,148.9
2018-10-23 11:20,50.63041,-96.980755,2.4,5.0,307,1002.70,-1.0,78,4.04,0.0,1031.05,148.9
2018-10-23 11:30,50.6304116666667,-96.9807566666667,2.0,3.4,296,1002.70,-1.4,79,4.05,0.0,1031.07,148.9
2018-10-23 11:40,50.6304133333333,-96.9807566666667,1.7,2.6,276,1002.75,-1.5,80,4.05,0.0,1031.15,148.9
2018-10-23 11:50,50.630415,-96.980755,4.4,5.7,261,1002.78,-2.1,81,4.05,0.0,1031.22,148.9
2018-10-23 12:00,50.63044,-96.98075,4.5,5.9,265,1002.78,-2.5,83,4.05,0.0,1031.24,14.5
2018-10-23 12:10,50.6304233333333,-96.980765,4.7,6.1,264,1002.78,-2.8,84,4.04,0.0,1031.26,14.5
2018-10-23 12:20,50.630415,-96.98075,4.6,6.1,256,1002.73,-3.1,85,4.04,0.0,1031.22,14.5
2018-10-23 12:30,50.63042,-96.9807466666667,4.3,5.8,272,1002.83,-3.1,86,4.03,0.0,1031.33,14.5
2018-10-23 12:40,50.6304183333333,-96.9807483333333,4.1,6.1,278,1003.02,-3.1,87,3.99,0.0,1031.53,14.5
2018-10-23 12:50,50.6304116666667,-96.980735,5.0,6.6,266,1003.00,-3.5,87,3.98,0.0,1031.53,14.5
2018-10-23 13:00,50.6304183333333,-96.9807533333333,5.2,7.2,278,1003.12,-3.6,89,3.98,0.0,1031.65,165.5
2018-10-23 13:10,50.6304216666667,-96.9807633333333,5.2,6.9,282,1003.18,-3.6,89,3.97,0.0,1031.72,165.5
2018-10-23 13:20,50.6304416666667,-96.9807666666667,5.8,7.3,283,1003.18,-3.7,89,3.97,0.0,1031.74,165.5
2018-10-23 13:30,50.63044,-96.980765,5.6,7.1,281,1003.28,-3.7,89,3.97,0.0,1031.85,165.5
2018-10-23 13:40,50.6304383333333,-96.9807666666667,5.8,7.1,283,1003.30,-3.7,88,3.96,0.0,1031.90,165.5
2018-10-23 13:50,50.6304383333333,-96.9807666666667,5.1,6.7,267,1003.28,-3.5,87,3.95,0.0,1031.90,165.5
2018-10-23 14:00,50.6304383333333,-96.980765,4.2,5.5,269,1003.26,-3.3,85,3.96,0.0,1031.88,360.0
2018-10-23 14:10,50.63043,-96.9807566666667,4.3,5.9,295,1003.56,-2.9,83,3.94,0.0,1032.19,360.0
2018-10-23 14:20,50.6304333333333,-96.980755,4.2,5.4,259,1003.27,-2.7,82,3.93,0.0,1031.88,360.0
2018-10-23 14:30,50.6304333333333,-96.9807533333333,3.3,5.1,270,1003.30,-2.2,81,3.93,0.0,1031.88,360.0
2018-10-23 14:40,50.6304333333333,-96.9807516666667,3.0,4.2,277,1003.37,-1.6,79,3.92,0.0,1031.94,360.0
2018-10-23 14:50,50.6304316666667,-96.9807533333333,3.0,4.3,279,1003.48,-1.0,76,3.90,0.0,1032.03,360.0
2018-10-23 15:00,50.63042,-96.98075,1.7,3.2,273,1003.50,-0.4,75,3.89,0.0,1032.02,360.0
2018-10-23 15:10,50.6304266666667,-96.980755,1.8,2.7,277,1003.57,0.2,72,3.90,0.0,1032.06,360.0
2018-10-23 15:20,50.6304233333333,-96.9807533333333,1.6,2.4,311,1003.60,0.7,69,3.92,0.0,1032.07,360.0
2018-10-23 15:30,50.63042,-96.9807533333333,1.3,1.9,360,1003.73,1.2,68,3.90,0.0,1032.18,360.0
2018-10-23 15:40,50.63042,-96.980755,2.3,3.2,28,1003.85,1.2,70,3.90,0.0,1032.29,360.0
2018-10-23 15:50,50.6304183333333,-96.9807716666667,1.1,2.8,50,1003.76,1.5,69,3.93,0.0,1032.16,360.0
2018-10-23 16:00,50.630425,-96.9807783333333,0.6,2.1,143,1003.64,1.9,66,3.93,0.0,1032.00,298.3
2018-10-23 16:10,50.63042,-96.980765,1.7,3.3,89,1003.70,2.6,64,3.94,0.0,1032.02,298.3
2018-10-23 16:20,50.630425,-96.9807566666667,2.2,3.6,84,1003.76,2.2,66,3.95,0.0,1032.07,298.3
2018-10-23 16:30,50.6304283333333,-96.9807583333333,3.0,5.1,88,1003.70,2.3,66,3.94,0.0,1031.97,298.3
2018-10-23 16:40,50.63044,-96.9807533333333,4.5,6.7,84,1003.77,1.9,68,3.93,0.0,1032.03,298.3
2018-10-23 16:50,50.6304183333333,-96.9807716666667,4.2,5.5,89,1003.78,2.5,65,3.94,0.0,1031.98,298.3
2018-10-23 17:00,50.630425,-96.9807733333333,4.5,5.6,92,1003.67,2.6,65,3.96,0.0,1031.83,203.5
2018-10-23 17:10,50.6304216666667,-96.980775,4.5,5.8,98,1003.63,3.2,64,3.97,0.0,1031.74,203.5
2018-10-23 17:20,50.6304083333333,-96.980755,4.7,6.6,100,1003.63,3.4,63,3.97,0.0,1031.70,203.5
2018-10-23 17:30,50.63041,-96.9807616666667,5.4,6.7,111,1003.57,3.1,66,3.97,0.0,1031.65,203.5
2018-10-23 17:40,50.63041,-96.9807616666667,5.5,6.9,110,1003.44,2.7,67,3.97,0.0,1031.53,203.5
2018-10-23 17:50,50.6304116666667,-96.9807616666667,6.3,7.4,110,1003.30,2.9,67,3.98,0.0,1031.35,203.5
2018-10-23 18:00,50.630445,-96.98076,6.1,7.5,105,1003.22,3.1,67,3.99,0.0,1031.23,332.4
2018-10-23 18:10,50.6304066666667,-96.98075,5.6,7.7,105,1003.24,3.3,66,3.99,0.0,1031.25,332.4
2018-10-23 18:20,50.6304166666667,-96.9807516666667,5.8,7.8,99,1003.27,3.6,65,4.01,0.0,1031.26,332.4
2018-10-23 18:30,50.6304183333333,-96.9807533333333,6.8,8.3,104,1003.17,3.5,65,4.02,0.0,1031.18,332.4
2018-10-23 18:40,50.63042,-96.980755,6.1,7.4,99,1003.12,3.6,65,4.05,0.0,1031.10,332.4
2018-10-23 18:50,50.63042,-96.9807583333333,6.5,8.0,100,1003.03,3.8,65,4.06,0.0,1030.99,332.4
2018-10-23 19:00,50.6304183333333,-96.9807766666667,7.0,8.7,104,1002.95,3.7,66,4.07,0.0,1030.89,167.4
2018-10-23 19:10,50.63041,-96.98075,7.6,9.2,110,1002.76,3.3,68,4.08,0.0,1030.70,167.4
2018-10-23 19:20,50.6304166666667,-96.9807566666667,7.4,9.1,103,1002.70,3.4,68,4.09,0.0,1030.64,167.4
2018-10-23 19:30,50.6304183333333,-96.9807566666667,7.7,9.7,102,1002.49,3.6,67,4.10,0.0,1030.44,167.4
2018-10-23 19:40,50.63042,-96.9807633333333,7.7,9.6,104,1002.36,3.7,67,4.10,0.0,1030.28,167.4
2018-10-23 19:50,50.6304216666667,-96.98076,7.1,9.0,102,1002.26,4.0,66,4.12,0.0,1030.16,167.4
2018-10-23 20:00,50.6304383333333,-96.9807716666667,7.0,8.8,103,1002.16,4.0,67,4.14,0.0,1030.05,18.9
2018-10-23 20:10,50.6303866666667,-96.9807533333333,8.1,9.7,105,1002.11,3.8,67,4.15,0.0,1030.00,18.9
2018-10-23 20:20,50.6304433333333,-96.9807733333333,7.8,9.6,106,1002.12,3.6,67,4.15,0.0,1030.01,18.9
2018-10-23 20:30,50.6304383333333,-96.9807666666667,8.5,10.1,104,1002.05,3.6,68,4.15,0.0,1029.94,18.9
2018-10-23 20:40,50.6304133333333,-96.9807666666667,8.1,10.3,101,1001.94,4.0,67,4.16,0.0,1029.80,18.9
2018-10-23 20:50,50.6304266666667,-96.980765,8.3,10.1,102,1001.86,4.0,67,4.19,0.0,1029.71,18.9
2018-10-23 21:00,50.63044,-96.9807633333333,7.9,9.9,97,1001.84,4.2,67,4.22,0.0,1029.71,270.0
2018-10-23 21:10,50.630435,-96.9807583333333,7.7,9.6,98,1001.74,4.3,66,4.23,0.0,1029.59,270.0
2018-10-23 21:20,50.6304333333333,-96.98076,7.8,9.5,100,1001.56,4.5,67,4.22,0.0,1029.39,270.0
2018-10-23 21:30,50.6304333333333,-96.9807583333333,7.5,8.8,105,1001.43,4.5,67,4.22,0.0,1029.25,270.0
2018-10-23 21:40,50.6304316666667,-96.9807566666667,7.1,8.3,109,1001.39,4.4,69,4.23,0.0,1029.20,270.0
2018-10-23 21:50,50.6304283333333,-96.9807566666667,6.6,7.9,109,1001.33,4.4,68,4.24,0.0,1029.14,270.0
2018-10-23 22:00,50.6304283333333,-96.980755,6.7,8.3,114,1001.19,4.6,69,4.24,0.0,1029.00,36.6
2018-10-23 22:10,50.6304266666667,-96.9807916666667,7.6,9.9,114,1001.13,4.4,71,4.24,0.0,1028.95,36.6
2018-10-23 22:20,50.63043,-96.9807616666667,9.0,10.7,116,1001.02,4.3,70,4.25,0.0,1028.84,36.6
2018-10-23 22:30,50.6304283333333,-96.9807533333333,9.0,10.8,117,1000.84,4.2,72,4.26,0.0,1028.65,36.6
2018-10-23 22:40,50.63043,-96.9807533333333,9.6,11.5,120,1000.68,3.8,73,4.26,0.0,1028.50,36.6
2018-10-23 22:50,50.6304366666667,-96.980755,9.9,11.5,124,1000.58,4.0,73,4.27,0.0,1028.38,36.6
2018-10-23 23:00,50.6304333333333,-96.9807466666667,10.2,11.5,125,1000.47,4.0,73,4.27,0.0,1028.26,122.3
2018-10-23 23:10,50.6304316666667,-96.9807516666667,10.0,11.5,125,1000.40,4.0,73,4.26,0.0,1028.18,122.3
2018-10-23 23:20,50.6304283333333,-96.98075,9.7,11.0,124,1000.38,3.9,74,4.26,0.0,1028.16,122.3
2018-10-23 23:30,50.6304283333333,-96.9807483333333,9.5,10.9,129,1000.37,3.9,75,4.26,0.0,1028.17,122.3
2018-10-23 23:40,50.63043,-96.9807483333333,8.6,11.1,138,1000.35,3.8,76,4.26,0.0,1028.15,122.3
2018-10-23 23:50,50.6304316666667,-96.9807483333333,8.5,11.1,138,1000.31,3.8,74,4.25,0.0,1028.09,122.3
